contact:dominique.lefevre@mio.osupytheas.fr, maurice.libes@osupytheas.fr, didier.mallarino@osupytheas.fr
Project:EMSO http://www.emso-fr.org/EMSO-France
Depth: 2436.0 m
Title:EMSO Ligure Ouest : Data MII capteur MICROCAT
DateTime_Computer,Latitude,Longitude,Temperature,Conductivity,Pressure,DateTime_Instrument
DateTime_Computer,Latitude,Longitude,degC,S m-1,dbar,DateTime_Instrument
2021-06-29T00:02:40Z,42.805,6.029,13.2999,4.60016,2470.544,2021-6-29T02:03:54Z
2021-06-29T00:05:43Z,42.805,6.029,13.3006,4.60029,2470.544,2021-6-29T02:06:57Z
2021-06-29T00:08:46Z,42.805,6.029,13.3003,4.60028,2470.53,2021-6-29T02:10:01Z
2021-06-29T00:11:49Z,42.805,6.029,13.3003,4.60032,2470.507,2021-6-29T02:13:04Z
2021-06-29T00:14:52Z,42.805,6.029,13.3001,4.60033,2470.53,2021-6-29T02:16:07Z
2021-06-29T00:17:55Z,42.805,6.029,13.3004,4.60031,2470.52,2021-6-29T02:19:10Z
2021-06-29T00:20:58Z,42.805,6.029,13.3000,4.60026,2470.516,2021-6-29T02:22:13Z
2021-06-29T00:24:02Z,42.805,6.029,13.3003,4.60035,2470.544,2021-6-29T02:25:16Z
2021-06-29T00:27:05Z,42.805,6.029,13.3006,4.60026,2470.507,2021-6-29T02:28:19Z
2021-06-29T00:30:08Z,42.805,6.029,13.3000,4.60033,2470.53,2021-6-29T02:31:22Z
2021-06-29T00:33:11Z,42.805,6.029,13.3004,4.60033,2470.53,2021-6-29T02:34:26Z
2021-06-29T00:36:14Z,42.805,6.029,13.2998,4.60029,2470.52,2021-6-29T02:37:29Z
2021-06-29T00:39:17Z,42.805,6.029,13.3007,4.60027,2470.507,2021-6-29T02:40:32Z
2021-06-29T00:42:20Z,42.805,6.029,13.3005,4.60031,2470.52,2021-6-29T02:43:35Z
2021-06-29T00:45:23Z,42.805,6.029,13.3000,4.60027,2470.474,2021-6-29T02:46:38Z
2021-06-29T00:48:27Z,42.805,6.029,13.3003,4.60021,2470.483,2021-6-29T02:49:41Z
2021-06-29T00:51:30Z,42.805,6.029,13.2998,4.60021,2470.52,2021-6-29T02:52:44Z
2021-06-29T00:54:33Z,42.805,6.029,13.3000,4.60025,2470.52,2021-6-29T02:55:47Z
2021-06-29T00:57:36Z,42.805,6.029,13.3004,4.60035,2470.53,2021-6-29T02:58:51Z
2021-06-29T01:00:39Z,42.805,6.029,13.3004,4.60035,2470.52,2021-6-29T03:01:54Z
2021-06-29T01:03:42Z,42.805,6.029,13.3000,4.60029,2470.534,2021-6-29T03:04:57Z
2021-06-29T01:06:45Z,42.805,6.029,13.3004,4.60029,2470.483,2021-6-29T03:08:00Z
2021-06-29T01:09:48Z,42.805,6.029,13.3003,4.60025,2470.497,2021-6-29T03:11:03Z
2021-06-29T01:12:52Z,42.805,6.029,13.3006,4.60026,2470.52,2021-6-29T03:14:06Z
2021-06-29T01:15:55Z,42.805,6.029,13.3004,4.60030,2470.483,2021-6-29T03:17:09Z
2021-06-29T01:18:58Z,42.805,6.029,13.3003,4.60036,2470.507,2021-6-29T03:20:12Z
2021-06-29T01:22:01Z,42.805,6.029,13.3009,4.60035,2470.497,2021-6-29T03:23:16Z
2021-06-29T01:25:04Z,42.805,6.029,13.3008,4.60039,2470.46,2021-6-29T03:26:19Z
2021-06-29T01:28:07Z,42.805,6.029,13.3006,4.60026,2470.483,2021-6-29T03:29:22Z
2021-06-29T01:31:10Z,42.805,6.029,13.3006,4.60028,2470.474,2021-6-29T03:32:25Z
2021-06-29T01:34:13Z,42.805,6.029,13.3004,4.60034,2470.507,2021-6-29T03:35:28Z
2021-06-29T01:37:17Z,42.805,6.029,13.3002,4.60037,2470.483,2021-6-29T03:38:31Z
2021-06-29T01:40:20Z,42.805,6.029,13.3003,4.60033,2470.437,2021-6-29T03:41:34Z
2021-06-29T01:43:23Z,42.805,6.029,13.3004,4.60038,2470.474,2021-6-29T03:44:37Z
2021-06-29T01:46:26Z,42.805,6.029,13.3009,4.60034,2470.46,2021-6-29T03:47:41Z
2021-06-29T01:49:29Z,42.805,6.029,13.3004,4.60029,2470.497,2021-6-29T03:50:44Z
2021-06-29T01:52:32Z,42.805,6.029,13.2999,4.60033,2470.437,2021-6-29T03:53:47Z
2021-06-29T01:55:35Z,42.805,6.029,13.3008,4.60041,2470.437,2021-6-29T03:56:50Z
2021-06-29T01:58:38Z,42.805,6.029,13.3000,4.60022,2470.474,2021-6-29T03:59:53Z
2021-06-29T02:01:42Z,42.805,6.029,13.3004,4.60031,2470.474,2021-6-29T04:02:56Z
2021-06-29T02:04:45Z,42.805,6.029,13.3003,4.60033,2470.45,2021-6-29T04:05:59Z
2021-06-29T02:07:48Z,42.805,6.029,13.3005,4.60026,2470.474,2021-6-29T04:09:02Z
2021-06-29T02:10:51Z,42.805,6.029,13.3004,4.60038,2470.474,2021-6-29T04:12:06Z
2021-06-29T02:13:54Z,42.805,6.029,13.3002,4.60028,2470.437,2021-6-29T04:15:09Z
2021-06-29T02:16:57Z,42.805,6.029,13.3006,4.60034,2470.437,2021-6-29T04:18:12Z
2021-06-29T02:20:00Z,42.805,6.029,13.3006,4.60029,2470.45,2021-6-29T04:21:15Z
2021-06-29T02:23:03Z,42.805,6.029,13.3007,4.60032,2470.437,2021-6-29T04:24:18Z
2021-06-29T02:26:06Z,42.805,6.029,13.3006,4.60042,2470.46,2021-6-29T04:27:21Z
2021-06-29T02:29:10Z,42.805,6.029,13.3003,4.60026,2470.46,2021-6-29T04:30:24Z
2021-06-29T02:32:13Z,42.805,6.029,13.3000,4.60024,2470.46,2021-6-29T04:33:27Z
2021-06-29T02:35:16Z,42.805,6.029,13.3009,4.60032,2470.46,2021-6-29T04:36:31Z
2021-06-29T02:38:19Z,42.805,6.029,13.3006,4.60042,2470.45,2021-6-29T04:39:34Z
2021-06-29T02:41:22Z,42.805,6.029,13.3005,4.60022,2470.437,2021-6-29T04:42:37Z
2021-06-29T02:44:25Z,42.805,6.029,13.3003,4.60023,2470.399,2021-6-29T04:45:40Z
2021-06-29T02:47:28Z,42.805,6.029,13.3000,4.60026,2470.404,2021-6-29T04:48:43Z
2021-06-29T02:50:31Z,42.805,6.029,13.3001,4.60024,2470.437,2021-6-29T04:51:46Z
2021-06-29T02:53:35Z,42.805,6.029,13.3004,4.60021,2470.427,2021-6-29T04:54:49Z
2021-06-29T02:56:38Z,42.805,6.029,13.3009,4.60044,2470.45,2021-6-29T04:57:52Z
2021-06-29T02:59:41Z,42.805,6.029,13.3005,4.60031,2470.413,2021-6-29T05:00:56Z
2021-06-29T03:02:44Z,42.805,6.029,13.3001,4.60027,2470.413,2021-6-29T05:03:59Z
2021-06-29T03:05:47Z,42.805,6.029,13.3000,4.60026,2470.427,2021-6-29T05:07:02Z
2021-06-29T03:08:50Z,42.805,6.029,13.3006,4.60028,2470.413,2021-6-29T05:10:05Z
2021-06-29T03:11:53Z,42.805,6.029,13.3003,4.60021,2470.413,2021-6-29T05:13:08Z
2021-06-29T03:14:56Z,42.805,6.029,13.3008,4.60039,2470.427,2021-6-29T05:16:11Z
2021-06-29T03:18:00Z,42.805,6.029,13.3003,4.60021,2470.366,2021-6-29T05:19:14Z
2021-06-29T03:21:03Z,42.805,6.029,13.3006,4.60025,2470.39,2021-6-29T05:22:17Z
2021-06-29T03:24:06Z,42.805,6.029,13.3006,4.60040,2470.39,2021-6-29T05:25:20Z
2021-06-29T03:27:09Z,42.805,6.029,13.3009,4.60026,2470.404,2021-6-29T05:28:24Z
2021-06-29T03:30:12Z,42.805,6.029,13.2998,4.60026,2470.39,2021-6-29T05:31:27Z
2021-06-29T03:33:15Z,42.805,6.029,13.3006,4.60026,2470.366,2021-6-29T05:34:30Z
2021-06-29T03:36:18Z,42.805,6.029,13.3001,4.60028,2470.404,2021-6-29T05:37:33Z
2021-06-29T03:39:21Z,42.805,6.029,13.2998,4.60034,2470.39,2021-6-29T05:40:36Z
2021-06-29T03:42:25Z,42.805,6.029,13.3004,4.60022,2470.441,2021-6-29T05:43:39Z
2021-06-29T03:45:28Z,42.805,6.029,13.3000,4.60016,2470.404,2021-6-29T05:46:42Z
2021-06-29T03:48:31Z,42.805,6.029,13.2999,4.60015,2470.404,2021-6-29T05:49:45Z
2021-06-29T03:51:34Z,42.805,6.029,13.3000,4.60014,2470.39,2021-6-29T05:52:49Z
2021-06-29T03:54:37Z,42.805,6.029,13.2998,4.60027,2470.39,2021-6-29T05:55:52Z
2021-06-29T03:57:40Z,42.805,6.029,13.3003,4.60023,2470.38,2021-6-29T05:58:55Z
2021-06-29T04:00:43Z,42.805,6.029,13.3006,4.60026,2470.366,2021-6-29T06:01:58Z
2021-06-29T04:03:46Z,42.805,6.029,13.3000,4.60021,2470.39,2021-6-29T06:05:01Z
2021-06-29T04:06:50Z,42.805,6.029,13.3003,4.60025,2470.366,2021-6-29T06:08:04Z
2021-06-29T04:09:53Z,42.805,6.029,13.3001,4.60026,2470.38,2021-6-29T06:11:07Z
2021-06-29T04:12:56Z,42.805,6.029,13.2998,4.60025,2470.366,2021-6-29T06:14:10Z
2021-06-29T04:15:59Z,42.805,6.029,13.3004,4.60026,2470.343,2021-6-29T06:17:14Z
2021-06-29T04:19:02Z,42.805,6.029,13.3000,4.60019,2470.404,2021-6-29T06:20:17Z
2021-06-29T04:22:05Z,42.805,6.029,13.3002,4.60027,2470.39,2021-6-29T06:23:20Z
2021-06-29T04:25:08Z,42.805,6.029,13.3001,4.60023,2470.343,2021-6-29T06:26:23Z
2021-06-29T04:28:11Z,42.805,6.029,13.3000,4.60021,2470.38,2021-6-29T06:29:26Z
2021-06-29T04:31:15Z,42.805,6.029,13.3007,4.60020,2470.404,2021-6-29T06:32:29Z
2021-06-29T04:34:18Z,42.805,6.029,13.3003,4.60014,2470.366,2021-6-29T06:35:32Z
2021-06-29T04:37:21Z,42.805,6.029,13.2999,4.60019,2470.38,2021-6-29T06:38:35Z
2021-06-29T04:40:24Z,42.805,6.029,13.3004,4.60017,2470.376,2021-6-29T06:41:39Z
2021-06-29T04:43:27Z,42.805,6.029,13.3000,4.60021,2470.366,2021-6-29T06:44:42Z
2021-06-29T04:46:30Z,42.805,6.029,13.2998,4.60032,2470.39,2021-6-29T06:47:45Z
2021-06-29T04:49:33Z,42.805,6.029,13.3006,4.60027,2470.343,2021-6-29T06:50:48Z
2021-06-29T04:52:36Z,42.805,6.029,13.3004,4.60021,2470.38,2021-6-29T06:53:51Z
2021-06-29T04:55:40Z,42.805,6.029,13.3000,4.60024,2470.366,2021-6-29T06:56:54Z
2021-06-29T04:58:43Z,42.805,6.029,13.2998,4.60020,2470.366,2021-6-29T06:59:57Z
2021-06-29T05:01:46Z,42.805,6.029,13.3000,4.60029,2470.366,2021-6-29T07:03:00Z
2021-06-29T05:04:49Z,42.805,6.029,13.3000,4.60033,2470.357,2021-6-29T07:06:04Z
2021-06-29T05:07:52Z,42.805,6.029,13.2998,4.60023,2470.38,2021-6-29T07:09:07Z
2021-06-29T05:10:55Z,42.805,6.029,13.3006,4.60015,2470.366,2021-6-29T07:12:10Z
2021-06-29T05:13:58Z,42.805,6.029,13.2999,4.60015,2470.366,2021-6-29T07:15:13Z
2021-06-29T05:17:01Z,42.805,6.029,13.2995,4.60015,2470.343,2021-6-29T07:18:16Z
2021-06-29T05:20:04Z,42.805,6.029,13.3004,4.60014,2470.357,2021-6-29T07:21:19Z
2021-06-29T05:23:08Z,42.805,6.029,13.2998,4.60021,2470.366,2021-6-29T07:24:22Z
2021-06-29T05:26:11Z,42.805,6.029,13.2998,4.60022,2470.343,2021-6-29T07:27:25Z
2021-06-29T05:29:14Z,42.805,6.029,13.3000,4.60025,2470.343,2021-6-29T07:30:29Z
2021-06-29T05:32:17Z,42.805,6.029,13.2999,4.60022,2470.343,2021-6-29T07:33:32Z
2021-06-29T05:35:20Z,42.805,6.029,13.3004,4.60017,2470.357,2021-6-29T07:36:35Z
2021-06-29T05:38:23Z,42.805,6.029,13.3000,4.60015,2470.366,2021-6-29T07:39:38Z
2021-06-29T05:41:26Z,42.805,6.029,13.3004,4.60016,2470.334,2021-6-29T07:42:41Z
2021-06-29T05:44:29Z,42.805,6.029,13.3004,4.60018,2470.357,2021-6-29T07:45:44Z
2021-06-29T05:47:33Z,42.805,6.029,13.3000,4.60014,2470.32,2021-6-29T07:48:47Z
2021-06-29T05:50:36Z,42.805,6.029,13.3004,4.60041,2470.357,2021-6-29T07:51:50Z
2021-06-29T05:53:39Z,42.805,6.029,13.3000,4.60017,2470.31,2021-6-29T07:54:54Z
2021-06-29T05:56:42Z,42.805,6.029,13.2997,4.60024,2470.343,2021-6-29T07:57:57Z
2021-06-29T05:59:45Z,42.805,6.029,13.3004,4.60016,2470.357,2021-6-29T08:01:00Z
2021-06-29T06:02:48Z,42.805,6.029,13.3008,4.60015,2470.32,2021-6-29T08:04:03Z
2021-06-29T06:05:51Z,42.805,6.029,13.2998,4.60019,2470.334,2021-6-29T08:07:06Z
2021-06-29T06:08:54Z,42.805,6.029,13.3001,4.60017,2470.343,2021-6-29T08:10:09Z
2021-06-29T06:11:58Z,42.805,6.029,13.3000,4.60024,2470.334,2021-6-29T08:13:12Z
2021-06-29T06:15:01Z,42.805,6.029,13.3004,4.60029,2470.343,2021-6-29T08:16:15Z
2021-06-29T06:18:04Z,42.805,6.029,13.3001,4.60024,2470.32,2021-6-29T08:19:18Z
2021-06-29T06:21:07Z,42.805,6.029,13.3003,4.60026,2470.357,2021-6-29T08:22:22Z
2021-06-29T06:24:10Z,42.805,6.029,13.2998,4.60040,2470.343,2021-6-29T08:25:25Z
2021-06-29T06:27:13Z,42.805,6.029,13.3004,4.60022,2470.366,2021-6-29T08:28:28Z
2021-06-29T06:30:16Z,42.805,6.029,13.3003,4.60016,2470.343,2021-6-29T08:31:31Z
2021-06-29T06:33:19Z,42.805,6.029,13.3000,4.60015,2470.366,2021-6-29T08:34:34Z
2021-06-29T06:36:23Z,42.805,6.029,13.3002,4.60019,2470.343,2021-6-29T08:37:37Z
2021-06-29T06:39:26Z,42.805,6.029,13.2999,4.60019,2470.343,2021-6-29T08:40:40Z
2021-06-29T06:42:29Z,42.805,6.029,13.3003,4.60031,2470.343,2021-6-29T08:43:43Z
2021-06-29T06:45:32Z,42.805,6.029,13.3005,4.60038,2470.366,2021-6-29T08:46:47Z
2021-06-29T06:48:35Z,42.805,6.029,13.3006,4.60031,2470.366,2021-6-29T08:49:50Z
2021-06-29T06:51:38Z,42.805,6.029,13.2996,4.60021,2470.39,2021-6-29T08:52:53Z
2021-06-29T06:54:41Z,42.805,6.029,13.3000,4.60023,2470.357,2021-6-29T08:55:56Z
2021-06-29T06:57:44Z,42.805,6.029,13.3005,4.60030,2470.343,2021-6-29T08:58:59Z
2021-06-29T07:00:48Z,42.805,6.029,13.2999,4.60026,2470.38,2021-6-29T09:02:02Z
2021-06-29T07:03:51Z,42.805,6.029,13.3000,4.60023,2470.343,2021-6-29T09:05:05Z
2021-06-29T07:06:54Z,42.805,6.029,13.3004,4.60024,2470.343,2021-6-29T09:08:08Z
2021-06-29T07:09:57Z,42.805,6.029,13.3004,4.60014,2470.366,2021-6-29T09:11:12Z
2021-06-29T07:13:00Z,42.805,6.029,13.3002,4.60016,2470.39,2021-6-29T09:14:15Z
2021-06-29T07:16:03Z,42.805,6.029,13.3001,4.60042,2470.343,2021-6-29T09:17:18Z
2021-06-29T07:19:06Z,42.805,6.029,13.3007,4.60034,2470.366,2021-6-29T09:20:21Z
2021-06-29T07:22:09Z,42.805,6.029,13.2998,4.60015,2470.39,2021-6-29T09:23:24Z
2021-06-29T07:25:13Z,42.805,6.029,13.3001,4.60016,2470.366,2021-6-29T09:26:27Z
2021-06-29T07:28:16Z,42.805,6.029,13.2996,4.60011,2470.343,2021-6-29T09:29:30Z
2021-06-29T07:31:19Z,42.805,6.029,13.3007,4.60031,2470.427,2021-6-29T09:32:33Z
2021-06-29T07:34:22Z,42.805,6.029,13.3000,4.60023,2470.366,2021-6-29T09:35:37Z
2021-06-29T07:37:25Z,42.805,6.029,13.2998,4.60029,2470.366,2021-6-29T09:38:40Z
2021-06-29T07:40:28Z,42.805,6.029,13.3000,4.60014,2470.404,2021-6-29T09:41:43Z
2021-06-29T07:43:31Z,42.805,6.029,13.2997,4.60015,2470.343,2021-6-29T09:44:46Z
2021-06-29T07:46:34Z,42.805,6.029,13.3001,4.60017,2470.413,2021-6-29T09:47:49Z
2021-06-29T07:49:38Z,42.805,6.029,13.2998,4.60022,2470.39,2021-6-29T09:50:52Z
2021-06-29T07:52:41Z,42.805,6.029,13.2999,4.60016,2470.39,2021-6-29T09:53:55Z
2021-06-29T07:55:44Z,42.805,6.029,13.3003,4.60022,2470.343,2021-6-29T09:56:58Z
2021-06-29T07:58:47Z,42.805,6.029,13.2998,4.60016,2470.366,2021-6-29T10:00:02Z
2021-06-29T08:01:50Z,42.805,6.029,13.2996,4.60014,2470.404,2021-6-29T10:03:05Z
2021-06-29T08:04:53Z,42.805,6.029,13.2999,4.60016,2470.343,2021-6-29T10:06:08Z
2021-06-29T08:07:56Z,42.805,6.029,13.3000,4.60019,2470.404,2021-6-29T10:09:11Z
2021-06-29T08:10:59Z,42.805,6.029,13.2998,4.60019,2470.39,2021-6-29T10:12:14Z
2021-06-29T08:14:03Z,42.805,6.029,13.2999,4.60020,2470.38,2021-6-29T10:15:17Z
2021-06-29T08:17:06Z,42.805,6.029,13.3004,4.60017,2470.404,2021-6-29T10:18:20Z
2021-06-29T08:20:09Z,42.805,6.029,13.3003,4.60031,2470.366,2021-6-29T10:21:23Z
2021-06-29T08:23:12Z,42.805,6.029,13.3000,4.60029,2470.427,2021-6-29T10:24:27Z
2021-06-29T08:26:15Z,42.805,6.029,13.3000,4.60021,2470.427,2021-6-29T10:27:30Z
2021-06-29T08:29:18Z,42.805,6.029,13.3001,4.60016,2470.366,2021-6-29T10:30:33Z
2021-06-29T08:32:21Z,42.805,6.029,13.3004,4.60019,2470.366,2021-6-29T10:33:36Z
2021-06-29T08:35:24Z,42.805,6.029,13.3003,4.60015,2470.39,2021-6-29T10:36:39Z
2021-06-29T08:38:28Z,42.805,6.029,13.2997,4.60011,2470.39,2021-6-29T10:39:42Z
2021-06-29T08:41:31Z,42.805,6.029,13.3000,4.60024,2470.366,2021-6-29T10:42:45Z
2021-06-29T08:44:34Z,42.805,6.029,13.2998,4.60018,2470.39,2021-6-29T10:45:49Z
2021-06-29T08:47:37Z,42.805,6.029,13.2997,4.60017,2470.39,2021-6-29T10:48:52Z
2021-06-29T08:50:40Z,42.805,6.029,13.2999,4.60025,2470.427,2021-6-29T10:51:55Z
2021-06-29T08:53:43Z,42.805,6.029,13.2995,4.60012,2470.404,2021-6-29T10:54:58Z
2021-06-29T08:56:46Z,42.805,6.029,13.3001,4.60015,2470.413,2021-6-29T10:58:01Z
2021-06-29T08:59:49Z,42.805,6.029,13.3000,4.60016,2470.45,2021-6-29T11:01:04Z
2021-06-29T09:02:53Z,42.805,6.029,13.3002,4.60021,2470.45,2021-6-29T11:04:07Z
2021-06-29T09:05:56Z,42.805,6.029,13.2997,4.60022,2470.427,2021-6-29T11:07:10Z
2021-06-29T09:08:59Z,42.805,6.029,13.3000,4.60018,2470.413,2021-6-29T11:10:14Z
2021-06-29T09:12:02Z,42.805,6.029,13.3002,4.60017,2470.404,2021-6-29T11:13:17Z
2021-06-29T09:15:05Z,42.805,6.029,13.3002,4.60020,2470.413,2021-6-29T11:16:20Z
2021-06-29T09:18:08Z,42.805,6.029,13.3006,4.60016,2470.38,2021-6-29T11:19:23Z
2021-06-29T09:21:11Z,42.805,6.029,13.3005,4.60016,2470.404,2021-6-29T11:22:26Z
2021-06-29T09:24:14Z,42.805,6.029,13.3004,4.60026,2470.404,2021-6-29T11:25:29Z
2021-06-29T09:27:18Z,42.805,6.029,13.2999,4.60032,2470.404,2021-6-29T11:28:32Z
2021-06-29T09:30:21Z,42.805,6.029,13.2996,4.60024,2470.437,2021-6-29T11:31:35Z
2021-06-29T09:33:24Z,42.805,6.029,13.3000,4.60018,2470.404,2021-6-29T11:34:39Z
2021-06-29T09:36:27Z,42.805,6.029,13.2998,4.60026,2470.437,2021-6-29T11:37:42Z
2021-06-29T09:39:30Z,42.805,6.029,13.3001,4.60016,2470.413,2021-6-29T11:40:45Z
2021-06-29T09:42:33Z,42.805,6.029,13.2999,4.60016,2470.45,2021-6-29T11:43:48Z
2021-06-29T09:45:36Z,42.805,6.029,13.3007,4.60021,2470.39,2021-6-29T11:46:51Z
2021-06-29T09:48:40Z,42.805,6.029,13.3000,4.60015,2470.413,2021-6-29T11:49:54Z
2021-06-29T09:51:43Z,42.805,6.029,13.3002,4.60020,2470.404,2021-6-29T11:52:57Z
2021-06-29T09:54:46Z,42.805,6.029,13.2999,4.60015,2470.413,2021-6-29T11:56:00Z
2021-06-29T09:57:49Z,42.805,6.029,13.3001,4.60014,2470.45,2021-6-29T11:59:04Z
2021-06-29T10:00:52Z,42.805,6.029,13.2996,4.60014,2470.413,2021-6-29T12:02:07Z
2021-06-29T10:03:55Z,42.805,6.029,13.3006,4.60024,2470.404,2021-6-29T12:05:10Z
2021-06-29T10:06:58Z,42.805,6.029,13.2997,4.60013,2470.404,2021-6-29T12:08:13Z
2021-06-29T10:10:01Z,42.805,6.029,13.3000,4.60013,2470.413,2021-6-29T12:11:16Z
2021-06-29T10:13:05Z,42.805,6.029,13.3003,4.60015,2470.413,2021-6-29T12:14:19Z
2021-06-29T10:16:08Z,42.805,6.029,13.2995,4.60016,2470.427,2021-6-29T12:17:22Z
2021-06-29T10:19:11Z,42.805,6.029,13.3001,4.60021,2470.413,2021-6-29T12:20:25Z
2021-06-29T10:22:14Z,42.805,6.029,13.3001,4.60011,2470.437,2021-6-29T12:23:29Z
2021-06-29T10:25:17Z,42.805,6.029,13.2999,4.60024,2470.413,2021-6-29T12:26:32Z
2021-06-29T10:28:20Z,42.805,6.029,13.3001,4.60014,2470.427,2021-6-29T12:29:35Z
2021-06-29T10:31:23Z,42.805,6.029,13.3001,4.60033,2470.404,2021-6-29T12:32:38Z
2021-06-29T10:34:26Z,42.805,6.029,13.2998,4.60017,2470.39,2021-6-29T12:35:41Z
2021-06-29T10:37:30Z,42.805,6.029,13.2998,4.60016,2470.413,2021-6-29T12:38:44Z
2021-06-29T10:40:33Z,42.805,6.029,13.3003,4.60021,2470.376,2021-6-29T12:41:47Z
2021-06-29T10:43:36Z,42.805,6.029,13.3003,4.60015,2470.437,2021-6-29T12:44:51Z
2021-06-29T10:46:39Z,42.805,6.029,13.2999,4.60015,2470.427,2021-6-29T12:47:54Z
2021-06-29T10:49:42Z,42.805,6.029,13.3004,4.60019,2470.404,2021-6-29T12:50:57Z
2021-06-29T10:52:45Z,42.805,6.029,13.2998,4.60021,2470.45,2021-6-29T12:54:00Z
2021-06-29T10:55:48Z,42.805,6.029,13.3005,4.60028,2470.427,2021-6-29T12:57:03Z
2021-06-29T10:58:51Z,42.805,6.029,13.2998,4.60016,2470.39,2021-6-29T13:00:06Z
2021-06-29T11:01:55Z,42.805,6.029,13.3003,4.60028,2470.404,2021-6-29T13:03:09Z
2021-06-29T11:04:58Z,42.805,6.029,13.2999,4.60022,2470.38,2021-6-29T13:06:12Z
2021-06-29T11:08:01Z,42.805,6.029,13.2997,4.60013,2470.404,2021-6-29T13:09:16Z
2021-06-29T11:11:04Z,42.805,6.029,13.3004,4.60016,2470.45,2021-6-29T13:12:19Z
2021-06-29T11:14:07Z,42.805,6.029,13.3004,4.60026,2470.39,2021-6-29T13:15:22Z
2021-06-29T11:17:10Z,42.805,6.029,13.2997,4.60030,2470.413,2021-6-29T13:18:25Z
2021-06-29T11:20:13Z,42.805,6.029,13.3001,4.60028,2470.404,2021-6-29T13:21:28Z
2021-06-29T11:23:17Z,42.805,6.029,13.3002,4.60020,2470.404,2021-6-29T13:24:31Z
2021-06-29T11:26:20Z,42.805,6.029,13.3003,4.60031,2470.404,2021-6-29T13:27:34Z
2021-06-29T11:29:23Z,42.805,6.029,13.2996,4.60016,2470.39,2021-6-29T13:30:37Z
2021-06-29T11:32:26Z,42.805,6.029,13.2998,4.60016,2470.39,2021-6-29T13:33:41Z
2021-06-29T11:35:29Z,42.805,6.029,13.2996,4.60026,2470.366,2021-6-29T13:36:44Z
2021-06-29T11:38:32Z,42.805,6.029,13.2996,4.60021,2470.39,2021-6-29T13:39:47Z
2021-06-29T11:41:35Z,42.805,6.029,13.3000,4.60019,2470.366,2021-6-29T13:42:50Z
2021-06-29T11:44:38Z,42.805,6.029,13.2998,4.60023,2470.366,2021-6-29T13:45:53Z
2021-06-29T11:47:42Z,42.805,6.029,13.3003,4.60018,2470.366,2021-6-29T13:48:56Z
2021-06-29T11:50:45Z,42.805,6.029,13.2997,4.60024,2470.39,2021-6-29T13:51:59Z
2021-06-29T11:53:48Z,42.805,6.029,13.3000,4.60016,2470.39,2021-6-29T13:55:02Z
2021-06-29T11:56:51Z,42.805,6.029,13.3001,4.60022,2470.366,2021-6-29T13:58:06Z
2021-06-29T11:59:54Z,42.805,6.029,13.2997,4.60021,2470.38,2021-6-29T14:01:09Z
2021-06-29T12:02:57Z,42.805,6.029,13.3000,4.60021,2470.39,2021-6-29T14:04:12Z
2021-06-29T12:06:00Z,42.805,6.029,13.3001,4.60012,2470.366,2021-6-29T14:07:15Z
2021-06-29T12:09:03Z,42.805,6.029,13.2996,4.60011,2470.357,2021-6-29T14:10:18Z
2021-06-29T12:12:07Z,42.805,6.029,13.2996,4.60011,2470.404,2021-6-29T14:13:21Z
2021-06-29T12:15:10Z,42.805,6.029,13.3004,4.60009,2470.366,2021-6-29T14:16:24Z
2021-06-29T12:18:13Z,42.805,6.029,13.2996,4.60013,2470.366,2021-6-29T14:19:27Z
2021-06-29T12:21:16Z,42.805,6.029,13.3000,4.60024,2470.38,2021-6-29T14:22:31Z
2021-06-29T12:24:19Z,42.805,6.029,13.2996,4.60014,2470.413,2021-6-29T14:25:34Z
2021-06-29T12:27:22Z,42.805,6.029,13.2998,4.60017,2470.366,2021-6-29T14:28:37Z
2021-06-29T12:30:25Z,42.805,6.029,13.2997,4.60010,2470.38,2021-6-29T14:31:40Z
2021-06-29T12:33:28Z,42.805,6.029,13.2995,4.60011,2470.366,2021-6-29T14:34:43Z
2021-06-29T12:36:32Z,42.805,6.029,13.2998,4.60012,2470.353,2021-6-29T14:37:46Z
2021-06-29T12:39:35Z,42.805,6.029,13.2998,4.60021,2470.39,2021-6-29T14:40:49Z
2021-06-29T12:42:38Z,42.805,6.029,13.2998,4.60016,2470.38,2021-6-29T14:43:53Z
2021-06-29T12:45:41Z,42.805,6.029,13.3001,4.60013,2470.343,2021-6-29T14:46:56Z
2021-06-29T12:48:44Z,42.805,6.029,13.3000,4.60016,2470.343,2021-6-29T14:49:59Z
2021-06-29T12:51:47Z,42.805,6.029,13.3000,4.60015,2470.343,2021-6-29T14:53:02Z
2021-06-29T12:54:50Z,42.805,6.029,13.2996,4.60015,2470.366,2021-6-29T14:56:05Z
2021-06-29T12:57:53Z,42.805,6.029,13.3002,4.60019,2470.38,2021-6-29T14:59:08Z
2021-06-29T13:00:57Z,42.805,6.029,13.3001,4.60021,2470.357,2021-6-29T15:02:11Z
2021-06-29T13:04:00Z,42.805,6.029,13.2998,4.60022,2470.357,2021-6-29T15:05:14Z
2021-06-29T13:07:03Z,42.805,6.029,13.3002,4.60026,2470.366,2021-6-29T15:08:18Z
2021-06-29T13:10:06Z,42.805,6.029,13.2996,4.60021,2470.366,2021-6-29T15:11:21Z
2021-06-29T13:13:09Z,42.805,6.029,13.2998,4.60017,2470.343,2021-6-29T15:14:24Z
2021-06-29T13:16:12Z,42.805,6.029,13.3000,4.60023,2470.366,2021-6-29T15:17:27Z
2021-06-29T13:19:15Z,42.805,6.029,13.2995,4.60010,2470.357,2021-6-29T15:20:30Z
2021-06-29T13:22:19Z,42.805,6.029,13.2996,4.60018,2470.343,2021-6-29T15:23:33Z
2021-06-29T13:25:22Z,42.805,6.029,13.2998,4.60013,2470.334,2021-6-29T15:26:36Z
2021-06-29T13:28:25Z,42.805,6.029,13.2994,4.60015,2470.31,2021-6-29T15:29:39Z
2021-06-29T13:31:28Z,42.805,6.029,13.2995,4.60021,2470.343,2021-6-29T15:32:43Z
2021-06-29T13:34:31Z,42.805,6.029,13.3001,4.60019,2470.32,2021-6-29T15:35:46Z
2021-06-29T13:37:34Z,42.805,6.029,13.2998,4.60019,2470.357,2021-6-29T15:38:49Z
2021-06-29T13:40:37Z,42.805,6.029,13.3004,4.60023,2470.343,2021-6-29T15:41:52Z
2021-06-29T13:43:40Z,42.805,6.029,13.3001,4.60019,2470.366,2021-6-29T15:44:55Z
2021-06-29T13:46:44Z,42.805,6.029,13.2996,4.60010,2470.357,2021-6-29T15:47:58Z
2021-06-29T13:49:47Z,42.805,6.029,13.3000,4.60016,2470.343,2021-6-29T15:51:01Z
2021-06-29T13:52:50Z,42.805,6.029,13.2996,4.60010,2470.32,2021-6-29T15:54:04Z
2021-06-29T13:55:53Z,42.805,6.029,13.2993,4.60008,2470.334,2021-6-29T15:57:08Z
2021-06-29T13:58:56Z,42.805,6.029,13.3001,4.60027,2470.32,2021-6-29T16:00:11Z
2021-06-29T14:01:59Z,42.805,6.029,13.3001,4.60017,2470.357,2021-6-29T16:03:14Z
2021-06-29T14:05:02Z,42.805,6.029,13.2999,4.60016,2470.334,2021-6-29T16:06:17Z
2021-06-29T14:08:05Z,42.805,6.029,13.3000,4.60028,2470.334,2021-6-29T16:09:20Z
2021-06-29T14:11:09Z,42.805,6.029,13.2998,4.60023,2470.32,2021-6-29T16:12:23Z
2021-06-29T14:14:12Z,42.805,6.029,13.2998,4.60015,2470.31,2021-6-29T16:15:26Z
2021-06-29T14:17:15Z,42.805,6.029,13.2996,4.60020,2470.357,2021-6-29T16:18:29Z
2021-06-29T14:20:18Z,42.805,6.029,13.3000,4.60013,2470.357,2021-6-29T16:21:33Z
2021-06-29T14:23:21Z,42.805,6.029,13.2999,4.60014,2470.32,2021-6-29T16:24:36Z
2021-06-29T14:26:24Z,42.805,6.029,13.2999,4.60014,2470.31,2021-6-29T16:27:39Z
2021-06-29T14:29:27Z,42.805,6.029,13.3003,4.60026,2470.32,2021-6-29T16:30:42Z
2021-06-29T14:32:30Z,42.805,6.029,13.3000,4.60014,2470.31,2021-6-29T16:33:45Z
2021-06-29T14:35:34Z,42.805,6.029,13.2993,4.60009,2470.357,2021-6-29T16:36:48Z
2021-06-29T14:38:37Z,42.805,6.029,13.2995,4.60007,2470.32,2021-6-29T16:39:51Z
2021-06-29T14:41:40Z,42.805,6.029,13.2996,4.60012,2470.334,2021-6-29T16:42:55Z
2021-06-29T14:44:43Z,42.805,6.029,13.2993,4.60010,2470.31,2021-6-29T16:45:58Z
2021-06-29T14:47:46Z,42.805,6.029,13.2998,4.60011,2470.334,2021-6-29T16:49:01Z
2021-06-29T14:50:49Z,42.805,6.029,13.3000,4.60016,2470.297,2021-6-29T16:52:04Z
2021-06-29T14:53:52Z,42.805,6.029,13.3000,4.60031,2470.31,2021-6-29T16:55:07Z
2021-06-29T14:56:55Z,42.805,6.029,13.3001,4.60016,2470.297,2021-6-29T16:58:10Z
2021-06-29T14:59:59Z,42.805,6.029,13.3004,4.60020,2470.297,2021-6-29T17:01:13Z
2021-06-29T15:03:02Z,42.805,6.029,13.2991,4.60009,2470.334,2021-6-29T17:04:16Z
2021-06-29T15:06:05Z,42.805,6.029,13.2998,4.60014,2470.287,2021-6-29T17:07:20Z
2021-06-29T15:09:08Z,42.805,6.029,13.2997,4.60014,2470.306,2021-6-29T17:10:23Z
2021-06-29T15:12:11Z,42.805,6.029,13.2997,4.60009,2470.32,2021-6-29T17:13:26Z
2021-06-29T15:15:14Z,42.805,6.029,13.2993,4.60012,2470.273,2021-6-29T17:16:29Z